Temp
81 80 82 85 89 90 90 90 90 90 89 90 92 93 93 93 90 89 88 86 85 85 86 86 86 86 86 87 87 87 87 87 88 87 87 86 86 86 87 88 87 85 87 87 88 87 86 87 88 88 88 87 87 86 86 87 87 88 86 86 85 85 84
82 81 82 82 87 90 91 90 90 91 90 91 91 91 93 93 90 90 87 87 86 86 87 87 86 86 87 87 87 87 86 87 87 87 88 86 87 86 88 87 86 85 86 87 86 88 88 87 87 87 87 88 88 86 88 87 87 87 87 86 87 85 85
83 83 83 83 82 88 89 92 90 91 91 92 92 93 92 90 91 89 88 88 86 86 88 87 87 87 87 87 87 87 87 88 87 89 89 90 90 90 89 88 89 88 89 88 86 89 90 90 88 88 87 88 90 87 87 87 87 88 86 86 87 86 85
83 83 83 83 82 82 89 90 90 91 92 92 92 94 93 90 92 90 90 89 88 87 86 88 89 89 88 87 87 87 87 87 88 90 91 91 91 91 89 89 88 89 88 87 89 90 91 89 90 88 88 88 88 88 88 88 89 88 87 85 86 87 85
81 84 83 81 81 80 83 87 88 88 90 91 90 90 93 93 93 93 91 91 92 89 90 90 91 90 89 89 90 90 88 89 89 90 90 91 90 90 90 91 90 90 88 90 88 86 84 86 89 88 88 87 89 88 88 88 88 87 86 86 85 87 86
81 81 81 81 81 81 81 83 87 89 89 88 89 90 91 91 93 93 91 91 91 89 89 90 91 90 89 90 90 91 89 89 88 88 89 89 88 90 89 90 91 91 90 88 90 89 87 87 88 88 89 90 90 90 90 89 89 89 87 86 86 87 88
80 80 81 82 80 80 81 81 83 87 88 88 90 91 91 91 90 90 89 90 89 86 87 89 91 91 90 91 90 90 89 90 90 90 91 93 90 89 89 89 89 91 92 90 89 90 89 87 88 88 89 90 88 90 88 86 87 87 87 85 85 86 86
82 80 81 82 83 82 82 82 83 83 85 87 87 89 89 87 85 84 87 88 88 87 88 89 91 89 88 90 91 91 91 91 91 91 91 92 92 91 91 90 90 90 90 91 90 90 90 89 91 89 89 89 89 89 89 87 86 90 88 86 85 86 90
84 82 82 83 83 83 82 83 83 82 83 85 85 86 86 85 83 85 86 88 88 89 88 91 92 90 90 90 90 91 92 92 91 91 92 92 93 93 94 94 92 91 90 91 91 91 90 91 91 89 88 88 88 88 88 87 88 89 88 86 86 86 88
79 80 81 80 79 80 82 83 84 82 82 83 84 84 83 82 81 82 82 83 87 87 89 90 90 90 88 88 89 92 93 91 92 93 93 93 93 93 94 95 94 93 92 92 93 92 90 91 90 88 86 87 87 87 87 88 88 89 89 88 87 87 86
79 79 79 77 76 77 78 80 80 81 82 82 81 79 79 78 80 80 80 81 81 84 86 88 88 88 89 90 90 90 91 93 94 93 93 93 94 94 95 95 96 93 92 91 92 92 91 89 90 87 86 88 88 87 87 88 88 88 90 90 89 88 89
78 78 75 73 72 71 71 74 76 76 77 80 80 78 78 78 78 78 76 78 80 80 81 81 87 88 90 88 88 87 88 91 93 93 94 94 95 95 96 96 96 95 93 92 90 89 90 90 90 89 87 87 88 88 88 87 87 87 88 90 91 89 89
76 74 74 75 73 73 73 73 72 73 75 79 80 81 81 81 80 78 77 77 78 79 80 80 84 86 86 85 86 86 87 90 90 92 94 93 94 96 95 96 96 96 95 92 91 90 90 90 89 89 89 88 89 89 87 87 89 86 87 89 88 88 88
73 75 76 74 73 73 73 73 74 73 74 77 78 80 80 81 82 81 79 78 78 78 78 81 84 86 85 84 83 84 87 89 90 92 90 90 89 91 95 96 96 95 94 92 91 91 91 91 91 91 90 89 90 89 89 88 89 87 87 88 89 89 88
72 73 72 74 73 72 72 72 73 73 74 76 77 77 77 78 79 79 79 80 80 79 80 84 85 85 84 84 83 83 85 85 88 88 88 89 89 89 90 92 93 93 92 91 92 93 92 92 91 90 90 90 88 89 90 91 89 89 88 87 88 89 89
67 69 70 71 72 72 71 72 72 74 74 75 75 74 74 76 77 78 78 78 79 80 82 84 83 82 83 84 84 84 85 86 86 84 84 86 87 88 88 90 90 93 93 91 91 89 89 88 89 91 91 89 89 89 91 90 91 88 84 84 88 88 88
67 68 67 66 68 70 71 71 71 73 74 74 73 73 72 73 76 78 78 78 78 79 80 80 80 82 82 82 83 84 84 83 83 83 83 81 81 82 83 83 84 83 80 81 84 85 86 86 84 87 88 90 89 89 89 90 92 83 75 76 81 89 88
66 66 67 67 67 69 70 70 70 70 72 73 75 75 75 75 77 78 77 78 78 79 79 79 78 79 80 81 81 83 83 82 82 82 79 77 79 81 82 82 82 82 82 83 84 80 82 84 84 84 83 86 88 90 90 90 86 76 73 74 76 82 88
68 70 70 68 67 67 68 68 68 68 68 69 70 70 72 76 77 77 78 78 79 79 78 78 77 77 77 79 80 81 81 81 81 81 76 74 75 76 78 80 81 82 82 83 81 78 79 80 83 86 85 84 82 84 89 90 76 71 71 70 72 75 84
69 69 70 70 68 68 67 67 67 68 69 70 71 71 71 72 72 74 76 78 78 78 77 77 77 76 76 78 79 79 79 79 79 80 79 76 76 75 76 77 79 80 81 79 78 76 77 80 80 81 80 82 83 84 84 77 66 62 65 69 70 73 79
69 70 70 69 69 69 69 70 70 69 69 71 70 71 71 71 73 73 75 75 74 74 72 71 71 72 73 74 73 75 76 76 77 77 77 77 78 78 78 78 78 79 78 77 77 78 77 77 79 79 78 80 80 80 79 76 64 63 63 65 68 69 78
70 70 70 70 70 70 70 71 71 72 72 72 73 73 75 74 75 74 73 73 72 72 72 71 71 71 71 71 72 73 73 74 74 74 74 75 75 76 76 76 76 75 75 76 77 78 78 78 78 77 77 77 77 77 78 74 61 62 61 61 62 68 83
73 73 75 74 75 73 74 74 74 74 74 74 76 74 74 75 75 74 72 72 71 71 71 71 70 71 71 71 72 73 74 74 72 71 72 72 73 74 74 73 74 74 74 73 74 74 76 78 78 77 76 76 76 74 73 73 62 60 59 59 62 72 82
74 74 73 73 74 74 74 75 76 76 75 74 74 75 75 75 74 73 72 71 71 71 70 70 70 71 71 72 73 73 73 74 73 72 72 72 72 72 72 72 72 72 74 74 74 73 74 75 74 75 75 76 75 75 73 72 62 57 58 58 60 70 79
74 74 74 74 73 73 73 73 75 78 78 78 77 78 77 75 75 76 74 73 74 73 71 70 70 70 71 72 73 74 74 75 74 74 74 74 74 75 74 73 73 73 73 73 73 73 73 74 73 73 73 74 74 77 73 69 65 57 57 58 59 69 79
71 73 74 75 75 75 74 74 74 73 73 74 75 78 77 78 77 75 74 75 75 73 71 71 70 72 72 73 73 73 73 74 75 75 74 74 75 76 76 76 77 76 76 74 74 73 72 72 72 73 72 73 73 73 70 68 66 63 55 56 59 61 73
71 73 72 73 74 74 73 73 73 73 73 73 75 76 74 74 74 72 73 74 73 72 73 73 73 72 71 73 75 74 73 74 75 74 75 76 75 76 76 77 76 76 75 74 74 73 71 71 70 70 70 71 71 70 70 69 67 63 55 55 56 59 67
71 71 73 74 72 72 73 74 72 72 73 73 74 76 76 74 71 70 70 71 72 73 75 74 73 74 74 72 73 75 75 75 75 77 76 76 76 75 75 77 76 76 75 75 74 73 72 71 70 69 69 70 70 70 69 71 71 68 60 56 55 56 60
65 65 66 68 70 74 73 71 70 71 71 72 73 73 73 73 70 70 70 69 71 75 74 74 74 73 73 72 72 72 72 74 77 77 77 75 74 74 73 74 74 74 74 74 74 72 72 70 70 70 69 69 69 68 68 69 70 69 68 59 55 55 57
65 65 65 66 67 67 69 68 70 71 72 72 71 71 71 70 68 69 69 69 72 74 75 75 74 73 73 73 73 73 73 75 77 77 76 75 74 72 73 73 73 74 74 74 73 72 71 71 71 71 70 68 67 68 68 68 68 70 70 67 58 56 55
68 67 66 65 65 65 64 65 65 66 66 69 71 71 70 70 68 68 68 69 72 71 72 73 74 74 74 73 73 74 74 74 75 76 78 77 76 75 74 75 76 74 75 75 74 74 73 72 72 71 70 70 69 69 70 71 72 73 69 68 63 58 57
69 69 70 69 67 66 65 63 63 65 65 66 69 70 70 71 69 65 66 69 70 71 70 72 73 73 73 74 73 74 76 73 72 73 77 77 79 77 77 77 76 75 75 75 75 74 75 75 76 74 71 71 72 72 72 73 74 73 73 74 74 70 61
68 69 69 68 67 67 67 65 63 61 62 62 64 67 69 69 70 68 67 69 72 72 71 70 71 71 72 73 75 76 76 75 74 74 75 73 71 76 77 77 78 73 71 70 69 72 75 78 76 75 76 75 75 75 73 70 69 68 68 68 69 70 71
68 68 69 69 68 69 68 67 65 63 62 60 62 63 64 65 65 66 67 67 69 70 70 70 71 72 72 73 74 75 76 76 77 76 73 72 71 71 73 74 74 71 69 67 68 69 69 71 76 75 76 76 75 72 69 69 66 63 61 62 60 63 66
69 69 68 68 69 69 68 67 66 64 63 62 62 62 62 62 63 64 65 67 67 66 66 67 70 71 72 73 73 69 73 75 75 73 74 71 69 66 64 67 72 71 69 67 65 66 68 70 69 70 72 71 68 70 69 67 64 61 53 54 50 52 58
69 69 69 71 70 70 69 68 66 65 64 64 64 63 62 62 62 63 64 65 65 66 65 67 70 72 69 69 71 72 73 74 74 73 72 76 72 68 66 58 51 57 70 68 58 48 48 54 62 62 67 68 65 66 66 64 62 51 45 43 43 43 44
69 69 69 70 70 69 68 67 67 66 65 65 65 64 63 63 64 64 65 64 65 64 64 65 65 69 71 68 67 67 70 73 72 72 71 71 73 73 69 68 63 45 46 53 52 47 41 41 43 46 53 65 67 57 52 52 47 43 43 43 43 42 42
71 69 68 68 69 67 67 66 66 65 64 65 65 65 65 65 65 65 67 66 66 65 63 63 63 64 67 70 69 68 68 69 69 71 71 70 71 71 70 68 64 63 47 43 47 46 42 41 42 42 44 48 56 66 62 51 44 40 42 42 43 43 42
MSLP
1012.11 1012.19 1011.79 1011.07 1010.79 1010.67 1010.83 1010.95 1011.11 1011.35 1011.55 1011.79 1011.95 1011.99 1012.19 1012.35 1012.63 1013.11 1013.71 1014.19 1014.55 1014.99 1014.91 1015.07 1015.27 1015.39 1015.63 1015.75 1015.83 1015.91 1015.99 1016.23 1016.35 1016.67 1016.95 1017.11 1017.19 1017.35 1017.59 1017.55 1017.87 1018.07 1017.99 1018.23 1018.19 1018.31 1018.31 1018.23 1018.39 1018.55 1018.55 1018.67 1018.79 1018.87 1018.87 1018.87 1018.99 1018.99 1019.03 1019.15 1019.23 1019.39 1019.51
1011.79 1011.87 1011.71 1011.59 1010.83 1010.47 1010.51 1010.67 1010.91 1011.11 1011.39 1011.67 1011.87 1011.83 1011.91 1011.99 1012.47 1013.07 1013.55 1013.95 1014.27 1014.67 1014.79 1014.91 1015.11 1015.27 1015.43 1015.59 1015.63 1015.79 1016.03 1016.15 1016.23 1016.39 1016.63 1016.87 1016.91 1017.07 1017.07 1017.43 1017.63 1017.91 1017.91 1017.79 1017.95 1017.91 1017.99 1018.19 1018.23 1018.47 1018.63 1018.59 1018.67 1018.75 1018.79 1018.83 1018.87 1018.95 1018.99 1019.07 1019.19 1019.39 1019.39
1011.47 1011.43 1011.47 1011.51 1011.51 1010.67 1010.55 1010.51 1010.75 1010.87 1011.19 1011.47 1011.59 1011.71 1011.87 1012.07 1012.23 1012.71 1013.35 1013.79 1014.23 1014.43 1014.51 1014.75 1014.87 1015.07 1015.19 1015.39 1015.63 1015.83 1015.91 1016.07 1016.27 1016.35 1016.63 1016.79 1016.87 1016.91 1016.87 1016.99 1017.19 1017.47 1017.55 1017.59 1017.83 1017.87 1017.75 1017.95 1017.99 1018.15 1018.43 1018.59 1018.51 1018.67 1018.67 1018.75 1018.79 1018.83 1018.95 1019.07 1019.19 1019.35 1019.43
1010.91 1011.11 1011.35 1011.27 1011.27 1011.15 1010.27 1010.39 1010.75 1010.79 1010.87 1011.07 1011.31 1011.39 1011.63 1011.95 1011.99 1012.39 1012.91 1013.39 1013.95 1014.27 1014.59 1014.59 1014.71 1014.87 1015.03 1015.35 1015.55 1015.75 1015.91 1015.95 1015.99 1016.11 1016.19 1016.23 1016.51 1016.51 1016.79 1016.95 1017.11 1017.15 1017.39 1017.67 1017.55 1017.59 1017.59 1017.79 1017.95 1018.03 1018.23 1018.43 1018.47 1018.51 1018.59 1018.67 1018.67 1018.79 1018.91 1019.11 1019.23 1019.15 1019.23
1011.11 1010.79 1011.03 1011.43 1011.67 1011.75 1011.03 1010.51 1010.75 1010.83 1010.91 1010.83 1011.03 1011.07 1011.27 1011.59 1011.87 1012.23 1012.71 1012.99 1013.35 1013.87 1013.99 1014.23 1014.31 1014.51 1014.75 1014.95 1015.19 1015.39 1015.63 1015.75 1015.87 1015.83 1015.91 1015.87 1016.07 1016.31 1016.63 1016.87 1016.99 1017.15 1017.27 1017.23 1017.35 1017.59 1017.75 1017.95 1017.95 1018.07 1018.23 1018.27 1018.43 1018.47 1018.55 1018.55 1018.71 1018.71 1018.83 1018.99 1019.27 1019.15 1019.31
1011.03 1011.23 1011.23 1011.47 1011.63 1011.67 1011.51 1010.91 1010.75 1010.79 1010.95 1011.07 1011.11 1011.27 1011.39 1011.67 1011.79 1012.31 1012.63 1012.95 1013.15 1013.35 1013.59 1013.87 1014.11 1014.31 1014.75 1014.75 1014.91 1015.11 1015.31 1015.47 1015.59 1015.67 1015.79 1015.87 1016.23 1016.47 1016.75 1016.71 1016.79 1016.91 1017.19 1017.35 1017.19 1017.43 1017.63 1017.79 1017.87 1018.03 1018.19 1018.19 1018.31 1018.43 1018.43 1018.51 1018.55 1018.67 1018.79 1018.91 1019.11 1019.03 1019.19
1010.91 1011.15 1011.15 1011.23 1011.55 1011.75 1011.67 1011.43 1011.23 1010.91 1010.75 1010.91 1010.87 1011.11 1011.35 1011.67 1011.99 1012.15 1012.43 1012.91 1012.99 1013.55 1013.75 1013.87 1013.83 1014.07 1014.43 1014.43 1014.71 1014.95 1015.39 1015.47 1015.55 1015.67 1015.59 1015.71 1015.91 1016.31 1016.47 1016.59 1016.63 1016.59 1016.63 1016.83 1017.19 1017.19 1017.51 1017.75 1017.83 1017.91 1017.95 1017.95 1018.15 1018.23 1018.39 1018.59 1018.55 1018.59 1018.67 1018.87 1019.03 1018.99 1018.95
1010.31 1011.07 1010.91 1011.07 1011.07 1011.39 1011.47 1011.51 1011.35 1011.35 1011.11 1010.95 1011.31 1011.55 1011.79 1011.99 1012.31 1012.55 1012.83 1012.95 1012.91 1013.27 1013.55 1013.71 1013.71 1013.91 1014.19 1014.27 1014.47 1014.75 1015.03 1015.15 1015.23 1015.39 1015.47 1015.71 1015.71 1015.99 1016.19 1016.35 1016.47 1016.47 1016.59 1016.91 1016.91 1016.95 1017.23 1017.43 1017.51 1017.67 1017.79 1017.99 1017.99 1018.03 1018.19 1018.39 1018.43 1018.35 1018.51 1018.79 1018.91 1018.99 1018.79
1009.83 1010.19 1010.47 1010.63 1010.79 1011.03 1011.27 1011.39 1011.47 1011.67 1011.71 1011.59 1011.59 1011.83 1012.07 1012.43 1012.79 1012.83 1012.95 1012.95 1012.99 1013.19 1013.39 1013.35 1013.39 1013.51 1013.79 1014.11 1014.31 1014.55 1014.63 1014.75 1015.03 1015.19 1015.39 1015.55 1015.59 1015.79 1015.79 1015.87 1016.07 1016.11 1016.63 1016.75 1016.79 1016.75 1016.95 1017.15 1017.23 1017.35 1017.63 1017.95 1017.87 1017.95 1018.15 1018.23 1018.27 1018.23 1018.35 1018.59 1018.75 1018.91 1018.79
1010.51 1010.63 1010.59 1010.87 1011.27 1011.11 1011.23 1011.27 1011.47 1011.79 1012.03 1011.99 1011.95 1012.27 1012.63 1012.87 1012.91 1012.91 1013.11 1013.27 1013.19 1013.27 1013.19 1013.31 1013.27 1013.39 1013.71 1013.99 1014.19 1014.23 1014.39 1014.71 1014.71 1014.95 1015.15 1015.39 1015.39 1015.51 1015.51 1015.43 1015.63 1015.67 1016.15 1016.43 1016.43 1016.71 1016.83 1016.91 1017.11 1017.43 1017.75 1017.91 1017.99 1018.07 1018.07 1018.11 1018.19 1018.11 1018.15 1018.35 1018.47 1018.63 1018.75
1010.63 1010.71 1011.07 1011.67 1012.15 1012.11 1011.91 1012.03 1012.23 1012.39 1012.31 1012.23 1012.47 1012.99 1013.03 1013.07 1013.03 1013.07 1013.35 1013.51 1013.63 1013.43 1013.31 1013.31 1013.27 1013.47 1013.71 1013.87 1014.19 1014.19 1014.31 1014.43 1014.51 1014.75 1014.91 1015.07 1015.07 1015.19 1015.15 1015.19 1015.27 1015.51 1015.99 1016.27 1016.43 1016.51 1016.75 1016.91 1016.91 1017.35 1017.67 1017.91 1017.99 1018.03 1018.07 1018.03 1018.03 1018.15 1018.07 1018.03 1018.11 1018.31 1018.35
1011.35 1011.39 1012.11 1012.51 1012.95 1012.71 1012.87 1012.91 1012.87 1013.31 1013.39 1012.83 1012.79 1012.99 1013.07 1013.23 1013.31 1013.31 1013.59 1013.71 1013.51 1013.79 1013.79 1013.87 1013.51 1013.71 1013.79 1013.99 1014.27 1014.43 1014.47 1014.39 1014.35 1014.55 1014.63 1014.71 1014.75 1014.83 1014.83 1014.87 1015.03 1015.19 1015.55 1015.91 1016.43 1016.67 1016.71 1016.87 1016.95 1017.15 1017.51 1017.63 1017.67 1017.67 1017.79 1017.79 1017.87 1018.03 1018.03 1017.95 1017.87 1017.95 1018.07
1011.91 1012.43 1012.51 1012.43 1012.63 1012.71 1012.91 1013.11 1013.23 1013.03 1013.07 1012.99 1012.91 1012.95 1012.99 1013.19 1013.51 1013.75 1013.95 1014.11 1013.75 1013.91 1014.23 1014.43 1014.19 1013.87 1014.03 1014.23 1014.39 1014.55 1014.67 1014.55 1014.47 1014.39 1014.43 1014.51 1014.55 1014.43 1014.51 1014.63 1014.71 1014.91 1015.27 1015.63 1016.11 1016.43 1016.67 1016.75 1016.95 1016.95 1017.15 1017.35 1017.47 1017.55 1017.63 1017.75 1017.75 1017.87 1017.91 1017.95 1017.95 1018.07 1018.15
1012.75 1012.59 1012.39 1012.63 1012.87 1012.99 1013.19 1013.23 1013.11 1013.23 1013.07 1012.83 1012.99 1012.99 1013.11 1013.19 1013.31 1013.67 1013.99 1014.23 1014.27 1014.51 1014.83 1014.63 1014.19 1013.95 1014.11 1014.35 1014.59 1014.71 1014.71 1014.55 1014.47 1014.35 1014.27 1014.35 1014.51 1014.51 1014.43 1014.47 1014.51 1014.67 1014.79 1015.31 1015.83 1016.11 1016.35 1016.59 1016.71 1016.75 1016.83 1017.03 1017.15 1017.19 1017.27 1017.47 1017.63 1017.71 1017.83 1017.87 1017.95 1018.03 1018.15
1013.19 1013.23 1013.39 1013.07 1013.11 1013.23 1013.19 1013.19 1013.23 1013.39 1013.39 1013.19 1013.19 1013.55 1013.63 1013.75 1013.87 1013.91 1014.15 1014.35 1014.55 1014.79 1014.51 1013.71 1013.71 1013.99 1014.19 1014.39 1014.63 1014.67 1014.55 1014.55 1014.31 1014.27 1014.31 1014.35 1014.55 1014.67 1014.75 1014.63 1014.71 1014.63 1014.79 1015.15 1015.43 1015.59 1015.83 1016.07 1016.31 1016.59 1016.75 1016.79 1016.99 1017.11 1017.07 1017.31 1017.55 1017.55 1017.67 1017.91 1017.91 1017.79 1018.03
1014.43 1013.91 1013.83 1013.67 1013.55 1013.39 1013.47 1013.43 1013.39 1013.35 1013.51 1013.51 1013.71 1014.15 1014.67 1014.59 1014.55 1014.55 1014.51 1014.43 1014.19 1014.11 1013.79 1013.63 1013.87 1014.19 1014.35 1014.55 1014.63 1014.59 1014.63 1014.59 1014.63 1014.83 1014.75 1014.79 1014.79 1014.99 1015.03 1015.03 1014.99 1014.95 1014.99 1015.35 1015.39 1015.51 1015.71 1015.95 1016.11 1016.23 1016.51 1016.83 1016.95 1016.99 1017.11 1017.27 1017.19 1017.27 1017.43 1017.47 1017.63 1017.75 1017.91
1015.07 1014.43 1014.43 1014.75 1014.47 1013.99 1013.63 1013.51 1013.51 1013.67 1013.87 1014.07 1014.11 1014.07 1014.39 1014.79 1014.75 1014.67 1014.63 1014.51 1014.43 1014.31 1014.15 1014.23 1014.39 1014.39 1014.55 1014.71 1014.63 1014.67 1014.67 1014.95 1015.03 1015.03 1015.27 1015.43 1015.55 1015.55 1015.67 1015.75 1015.75 1015.91 1016.07 1016.07 1016.11 1016.31 1016.15 1016.03 1016.75 1016.95 1016.83 1016.83 1016.95 1017.07 1017.19 1017.11 1016.91 1016.99 1017.23 1017.31 1017.35 1017.47 1017.71
1015.67 1015.07 1014.63 1014.63 1014.87 1014.55 1014.31 1014.07 1014.03 1014.23 1014.31 1014.23 1014.19 1014.15 1014.19 1014.31 1014.35 1014.47 1014.67 1014.55 1014.55 1014.43 1014.31 1014.51 1014.67 1014.87 1014.95 1014.95 1014.91 1014.87 1014.95 1015.11 1015.27 1015.39 1015.67 1015.87 1016.11 1016.19 1016.11 1016.11 1016.19 1016.27 1016.23 1016.19 1016.23 1016.43 1016.71 1016.95 1017.15 1017.15 1017.59 1017.35 1016.91 1016.83 1016.91 1016.91 1016.79 1017.03 1017.19 1017.15 1017.19 1017.27 1017.43
1014.83 1014.23 1014.27 1014.71 1014.83 1014.99 1014.87 1014.87 1014.87 1014.83 1014.99 1015.11 1014.79 1014.83 1014.67 1014.35 1014.35 1014.39 1014.23 1014.39 1014.31 1014.35 1014.63 1014.83 1014.95 1015.11 1015.31 1015.27 1015.23 1015.23 1015.23 1015.31 1015.55 1015.67 1016.03 1016.27 1016.47 1016.59 1016.67 1016.63 1016.63 1016.59 1016.55 1016.55 1016.43 1016.43 1016.75 1016.75 1016.63 1016.67 1016.79 1016.99 1016.95 1017.15 1016.83 1016.83 1016.91 1017.11 1017.23 1017.35 1017.11 1017.07 1017.19
1014.27 1014.23 1014.27 1014.39 1014.71 1014.87 1015.03 1015.11 1015.15 1015.19 1015.23 1015.23 1015.19 1015.23 1015.15 1014.95 1014.95 1014.71 1014.39 1014.39 1014.35 1014.59 1014.79 1014.91 1014.99 1015.19 1015.43 1015.43 1015.43 1015.39 1015.43 1015.55 1015.63 1015.87 1016.19 1016.55 1016.35 1016.31 1016.51 1016.71 1016.79 1016.71 1016.51 1016.47 1016.59 1016.75 1016.83 1016.83 1016.91 1016.87 1016.87 1016.83 1016.95 1016.99 1017.31 1017.87 1017.99 1018.15 1017.95 1017.63 1017.35 1016.99 1017.03
1014.47 1014.43 1014.63 1014.79 1014.99 1014.99 1015.03 1014.99 1015.03 1015.43 1015.51 1015.35 1015.43 1015.51 1015.63 1015.71 1015.35 1014.95 1014.59 1014.63 1014.99 1015.07 1015.31 1015.43 1015.59 1015.75 1015.75 1015.79 1015.83 1015.79 1015.71 1015.75 1015.79 1015.95 1016.19 1016.43 1016.47 1016.43 1016.51 1016.67 1016.71 1016.63 1016.55 1016.51 1016.67 1016.83 1016.95 1016.99 1017.03 1017.03 1017.11 1017.11 1017.19 1017.43 1017.51 1017.83 1017.99 1018.23 1018.11 1017.75 1017.75 1017.59 1017.23
1014.75 1014.71 1014.91 1014.95 1015.07 1015.15 1015.15 1015.15 1015.27 1015.51 1015.71 1015.63 1015.51 1015.51 1015.43 1015.51 1015.19 1015.07 1014.99 1014.99 1015.27 1015.35 1015.39 1015.51 1015.71 1015.83 1015.95 1015.99 1015.83 1015.75 1015.71 1015.79 1015.87 1016.07 1016.27 1016.39 1016.51 1016.67 1016.83 1016.87 1016.95 1016.99 1016.71 1016.59 1016.55 1016.59 1016.67 1016.83 1016.99 1017.23 1017.27 1017.27 1017.31 1017.55 1017.67 1017.71 1017.59 1017.79 1017.95 1018.07 1017.79 1017.55 1017.35
1014.59 1014.59 1014.51 1014.55 1014.55 1014.75 1014.63 1014.71 1015.03 1015.23 1015.27 1015.31 1015.19 1015.31 1015.39 1015.19 1015.11 1015.19 1015.39 1015.59 1015.71 1015.79 1015.87 1015.79 1016.03 1015.99 1015.95 1016.03 1015.91 1015.83 1015.79 1015.79 1016.03 1016.19 1016.19 1016.43 1016.71 1016.79 1016.83 1016.87 1016.79 1016.67 1016.51 1016.79 1016.79 1016.83 1016.87 1016.87 1016.91 1017.07 1017.23 1017.31 1017.35 1017.51 1017.75 1017.75 1017.67 1017.43 1017.71 1017.79 1017.63 1017.51 1017.67
1014.79 1014.87 1015.07 1015.11 1014.99 1014.95 1014.87 1014.71 1014.63 1014.87 1015.19 1015.43 1015.39 1015.19 1015.11 1015.19 1015.27 1015.55 1015.79 1015.99 1016.07 1016.15 1016.19 1016.11 1016.03 1016.03 1016.03 1016.03 1015.87 1015.91 1015.87 1015.83 1015.87 1016.03 1016.11 1016.39 1016.67 1016.79 1016.71 1016.59 1016.55 1016.67 1016.59 1016.79 1016.87 1016.91 1016.83 1016.71 1016.87 1016.99 1017.11 1017.23 1017.47 1017.47 1017.79 1017.99 1018.27 1018.27 1018.07 1017.91 1017.71 1017.71 1017.79
1015.27 1015.31 1015.31 1015.35 1015.51 1015.63 1015.47 1015.23 1014.91 1014.75 1014.75 1014.99 1015.31 1015.15 1015.23 1015.43 1015.43 1015.51 1015.91 1015.99 1016.15 1016.35 1016.59 1016.59 1016.39 1016.31 1016.31 1016.27 1016.11 1016.03 1016.07 1016.07 1016.03 1016.07 1016.15 1016.35 1016.47 1016.43 1016.43 1016.31 1016.27 1016.31 1016.55 1016.83 1016.87 1016.75 1016.71 1016.83 1016.99 1017.15 1017.27 1017.27 1017.43 1017.43 1017.75 1018.11 1018.31 1018.35 1018.51 1018.27 1017.95 1017.75 1017.67
1016.19 1015.99 1015.91 1015.59 1015.43 1015.47 1015.55 1015.47 1015.59 1015.75 1015.95 1015.95 1015.91 1015.51 1015.51 1015.59 1015.79 1015.99 1016.19 1016.31 1016.27 1016.67 1016.99 1017.03 1016.91 1016.63 1016.47 1016.47 1016.47 1016.39 1016.39 1016.35 1016.27 1016.27 1016.35 1016.47 1016.43 1016.31 1016.19 1016.03 1016.03 1016.11 1016.31 1016.43 1016.51 1016.75 1016.87 1016.95 1017.03 1017.15 1017.27 1017.23 1017.31 1017.55 1017.95 1018.27 1018.43 1018.55 1018.91 1018.75 1018.11 1017.83 1017.75
1016.87 1016.55 1016.55 1016.39 1016.15 1015.91 1016.07 1016.15 1016.15 1016.39 1016.51 1016.63 1016.39 1016.35 1016.47 1016.55 1016.71 1016.91 1016.79 1016.75 1016.87 1017.03 1017.15 1017.07 1016.99 1017.03 1017.03 1016.83 1016.63 1016.67 1016.67 1016.55 1016.43 1016.47 1016.39 1016.31 1016.39 1016.27 1016.23 1016.11 1016.15 1016.23 1016.39 1016.55 1016.63 1016.83 1017.11 1017.23 1017.35 1017.55 1017.47 1017.31 1017.47 1017.71 1017.99 1018.15 1018.43 1018.63 1018.79 1018.83 1018.39 1017.91 1017.79
1016.99 1017.03 1016.75 1016.63 1016.79 1016.71 1016.75 1016.75 1016.79 1016.79 1016.95 1017.11 1017.07 1016.95 1016.91 1017.03 1017.47 1017.63 1017.75 1017.63 1017.55 1017.39 1017.19 1017.23 1017.23 1017.15 1017.15 1017.15 1016.91 1016.67 1016.67 1016.63 1016.47 1016.19 1016.27 1016.27 1016.19 1016.43 1016.43 1016.19 1016.19 1016.27 1016.43 1016.55 1016.75 1017.03 1017.23 1017.39 1017.51 1017.71 1017.91 1017.91 1017.67 1017.59 1017.87 1017.95 1018.11 1018.51 1018.67 1018.71 1018.59 1018.31 1018.11
1017.99 1018.03 1017.95 1017.71 1017.31 1016.95 1017.07 1017.43 1017.47 1017.43 1017.51 1017.59 1017.63 1017.71 1017.63 1017.63 1017.91 1018.07 1018.27 1018.43 1018.03 1017.51 1017.47 1017.51 1017.63 1017.59 1017.55 1017.47 1017.23 1017.07 1017.23 1016.99 1016.55 1016.43 1016.43 1016.59 1016.59 1016.67 1016.79 1016.55 1016.55 1016.55 1016.51 1016.63 1016.83 1017.15 1017.43 1017.67 1017.75 1017.87 1018.11 1018.31 1018.23 1018.11 1018.15 1018.19 1018.31 1018.39 1018.51 1018.63 1018.67 1018.51 1018.43
1018.23 1018.23 1018.31 1018.11 1018.03 1018.03 1017.83 1017.87 1017.75 1017.67 1017.63 1017.67 1017.91 1018.07 1018.07 1018.03 1018.27 1018.31 1018.47 1018.51 1018.07 1017.91 1017.79 1017.75 1017.75 1017.79 1017.87 1017.87 1017.63 1017.35 1017.39 1017.31 1017.11 1016.59 1016.51 1016.63 1016.75 1016.83 1016.95 1016.91 1016.75 1016.67 1016.83 1016.95 1017.11 1017.27 1017.51 1017.67 1017.79 1017.95 1018.27 1018.59 1018.79 1018.67 1018.59 1018.51 1018.63 1018.71 1018.59 1018.67 1018.71 1018.75 1018.79
1018.07 1018.23 1018.35 1018.51 1018.51 1018.39 1018.43 1018.59 1018.67 1018.59 1018.39 1018.11 1017.99 1018.15 1018.23 1018.31 1018.55 1018.67 1018.79 1018.59 1018.23 1018.43 1018.27 1018.15 1018.03 1017.95 1017.99 1018.03 1017.79 1017.51 1017.43 1017.35 1017.15 1016.79 1016.63 1016.67 1016.79 1016.95 1017.07 1016.99 1016.75 1016.95 1016.79 1016.83 1016.95 1016.99 1017.35 1017.55 1017.63 1017.91 1018.07 1018.27 1018.47 1018.59 1018.59 1018.59 1018.67 1018.83 1018.79 1018.83 1018.87 1018.83 1018.79
1017.91 1017.95 1018.03 1018.23 1018.47 1018.51 1018.63 1018.79 1018.95 1018.91 1018.87 1018.67 1018.39 1018.35 1018.27 1018.19 1018.51 1019.07 1019.11 1018.95 1018.75 1018.59 1018.63 1018.43 1018.35 1018.27 1017.99 1017.83 1017.79 1017.59 1017.47 1017.67 1017.55 1017.19 1016.99 1016.91 1016.79 1016.95 1016.79 1016.87 1016.99 1017.07 1017.07 1017.03 1017.03 1017.07 1017.19 1017.27 1017.23 1017.63 1018.07 1018.19 1018.23 1018.27 1018.39 1018.51 1018.63 1018.79 1018.79 1018.75 1018.71 1018.75 1018.87
1017.99 1017.87 1017.99 1018.19 1018.39 1018.43 1018.55 1018.79 1019.15 1019.43 1019.31 1019.27 1019.07 1018.95 1018.75 1018.51 1018.51 1018.95 1019.19 1019.07 1018.95 1018.95 1018.95 1019.03 1018.79 1018.67 1018.31 1017.99 1017.79 1017.63 1017.55 1017.55 1017.63 1017.59 1017.43 1017.43 1017.55 1017.15 1016.95 1016.79 1016.91 1017.55 1017.95 1018.11 1018.19 1017.91 1017.55 1017.07 1017.23 1017.39 1017.59 1017.87 1017.91 1017.99 1018.43 1019.03 1019.23 1019.39 1019.47 1019.43 1019.39 1019.31 1019.23
1018.11 1018.11 1018.07 1018.15 1018.19 1018.15 1018.39 1018.59 1018.99 1019.35 1019.55 1019.63 1019.47 1019.35 1019.31 1019.31 1019.23 1019.27 1019.35 1019.31 1019.35 1019.35 1019.31 1019.27 1019.19 1018.91 1018.59 1018.35 1018.15 1017.99 1017.75 1017.71 1017.51 1017.39 1017.75 1017.91 1018.03 1018.11 1018.11 1017.75 1017.71 1018.11 1018.55 1018.83 1018.79 1018.67 1018.59 1018.11 1017.55 1017.71 1017.75 1017.79 1017.99 1018.63 1019.15 1019.47 1019.87 1020.23 1020.43 1020.35 1020.43 1020.15 1019.83
1018.07 1018.07 1018.23 1018.31 1018.23 1018.19 1018.43 1018.51 1018.79 1019.07 1019.27 1019.51 1019.55 1019.55 1019.59 1019.75 1019.71 1019.55 1019.51 1019.43 1019.39 1019.59 1019.87 1019.75 1019.47 1019.23 1018.87 1018.47 1018.31 1018.67 1018.23 1017.91 1017.79 1017.95 1017.91 1018.23 1018.55 1019.07 1019.43 1019.15 1018.47 1018.43 1018.71 1019.11 1019.27 1019.23 1019.03 1018.71 1018.75 1018.71 1018.55 1018.67 1019.11 1019.11 1019.51 1019.87 1020.27 1020.67 1021.27 1021.19 1021.23 1021.03 1020.59
1018.07 1018.11 1018.15 1018.03 1018.11 1018.15 1018.27 1018.39 1018.67 1018.91 1019.11 1019.35 1019.47 1019.63 1019.71 1019.79 1019.91 1019.95 1019.83 1019.67 1019.51 1019.31 1019.63 1019.59 1019.39 1019.15 1019.39 1019.15 1018.87 1018.63 1018.43 1018.19 1018.31 1018.31 1018.23 1017.91 1018.39 1018.99 1019.35 1019.59 1019.31 1018.87 1018.71 1019.15 1019.71 1019.79 1019.59 1019.19 1019.43 1019.55 1019.15 1019.23 1019.75 1019.75 1019.99 1020.35 1020.63 1021.19 1021.31 1021.23 1021.19 1021.15 1020.99
1018.11 1018.23 1018.19 1018.15 1018.31 1018.43 1018.55 1018.55 1018.59 1018.79 1019.03 1019.19 1019.35 1019.55 1019.71 1019.83 1019.91 1019.91 1019.87 1019.79 1019.63 1019.63 1019.59 1019.59 1019.75 1019.43 1019.31 1019.51 1019.55 1019.47 1019.03 1018.67 1018.71 1018.63 1018.55 1018.51 1018.35 1018.51 1018.99 1019.27 1019.47 1019.75 1019.75 1019.63 1019.71 1019.71 1019.75 1019.87 1019.87 1019.63 1019.43 1019.35 1019.87 1020.47 1020.47 1020.79 1021.19 1021.27 1021.31 1021.23 1021.07 1020.91 1020.71
1018.03 1018.19 1018.39 1018.51 1018.55 1018.83 1018.99 1019.15 1019.19 1019.31 1019.39 1019.31 1019.23 1019.35 1019.43 1019.63 1019.71 1019.75 1019.75 1019.75 1019.75 1019.71 1019.83 1019.99 1020.23 1020.19 1019.91 1019.59 1019.51 1019.47 1019.31 1019.23 1019.27 1019.07 1018.91 1018.87 1018.75 1018.79 1018.79 1019.11 1019.71 1019.87 1020.11 1020.31 1020.19 1020.15 1020.15 1019.99 1019.91 1019.95 1019.95 1019.87 1019.87 1019.99 1020.47 1020.79 1020.99 1021.07 1020.95 1020.83 1020.83 1020.79 1020.75
Wind_Speed
13 11 8 6 14 14 14 13 13 12 11 12 12 14 14 13 11 11 12 11 11 11 11 11 10 9 9 8 8 7 6 6 5 5 5 4 5 5 6 6 6 3 3 5 5 5 5 3 3 5 4 5 5 4 3 3 3 5 4 4 4 2 2
16 13 11 4 8 15 14 14 13 12 12 12 12 11 13 13 12 13 12 12 12 12 12 11 11 9 10 8 8 7 7 7 6 5 6 5 5 4 5 5 4 5 3 3 1 2 4 7 5 5 5 5 5 4 5 5 4 4 3 3 2 3 3
16 14 10 7 2 7 14 15 13 13 14 14 14 13 12 10 11 11 13 14 13 13 12 12 11 11 9 9 8 9 8 7 7 8 8 8 8 8 5 5 5 5 5 4 3 4 3 4 5 5 6 5 6 7 4 5 4 4 3 3 4 3 3
14 14 12 7 4 4 10 13 14 13 15 15 13 15 13 10 12 11 13 14 15 14 13 13 13 12 11 10 9 9 9 8 8 9 9 8 9 8 6 5 4 4 4 6 5 4 4 4 5 4 5 5 4 6 6 5 5 5 5 4 3 4 3
10 12 11 8 7 2 5 12 12 10 13 13 11 11 11 12 12 12 13 15 15 15 15 14 12 12 10 11 9 9 10 11 9 8 7 6 6 5 6 8 7 7 4 4 4 4 2 1 4 3 4 3 4 4 5 4 5 4 4 5 4 4 3
14 12 10 8 7 6 2 3 9 12 12 11 12 10 11 12 13 15 13 14 14 12 11 13 13 11 11 12 10 10 9 9 7 6 6 5 6 7 7 5 6 7 8 5 5 7 5 4 4 4 6 7 7 6 6 6 6 6 5 4 4 4 5
8 8 10 12 9 6 6 3 1 5 10 9 10 10 10 10 10 9 9 10 10 12 11 12 12 13 10 10 9 10 11 11 9 10 9 9 9 8 7 7 7 7 6 6 5 5 7 6 5 5 6 6 5 8 5 4 4 5 4 5 4 4 3
12 11 14 13 12 11 8 4 4 3 1 9 9 10 10 8 6 5 4 10 9 10 10 10 11 9 8 8 9 10 11 11 10 10 8 10 9 9 9 10 9 7 5 6 5 5 5 6 7 6 5 6 6 5 5 4 4 6 5 5 5 5 6
9 11 12 15 14 12 9 8 6 5 5 5 9 10 8 7 6 6 5 4 4 7 9 10 9 9 9 8 8 10 10 10 10 10 10 11 9 10 9 9 9 9 8 8 7 6 6 5 7 3 4 4 4 3 5 5 6 6 4 4 5 5 6
9 8 9 9 8 9 9 9 7 7 8 9 7 7 7 7 6 6 4 2 3 4 7 8 6 7 7 7 7 11 11 10 9 11 11 11 9 10 10 9 9 8 8 7 7 7 5 5 6 3 3 3 4 4 4 4 6 6 6 6 5 5 5
8 9 8 6 4 4 5 4 5 2 3 4 7 8 6 7 6 7 4 3 2 1 1 4 6 5 6 7 7 7 9 11 11 11 11 11 10 11 11 10 9 7 9 8 8 6 6 5 5 4 4 5 6 6 5 6 5 6 7 6 6 7 6
8 9 9 10 7 9 10 4 7 7 6 5 8 8 6 5 5 5 3 4 4 1 1 4 3 4 8 5 6 5 5 7 9 10 10 10 10 10 11 10 9 9 9 8 7 6 8 7 7 6 6 6 6 6 6 5 5 6 6 7 7 5 5
6 7 11 12 10 7 6 8 10 10 6 4 7 7 7 7 8 7 5 4 3 3 2 7 8 5 6 4 5 4 5 7 6 7 9 8 8 8 8 9 9 10 10 10 9 9 9 9 8 6 7 7 8 7 5 6 6 5 5 6 5 4 5
7 6 8 7 8 8 7 9 9 5 4 7 7 7 6 5 7 10 8 7 5 7 9 9 9 7 6 6 5 5 8 8 8 8 5 4 5 6 8 8 9 8 7 9 10 10 10 10 10 9 7 7 8 7 6 6 6 5 5 5 6 7 5
4 8 6 9 11 8 9 10 8 5 3 5 6 6 6 5 4 4 3 4 6 8 8 5 5 5 5 5 6 6 5 5 4 4 4 4 2 2 3 5 6 5 2 5 9 10 9 9 9 9 8 7 7 8 8 7 7 5 4 5 7 7 6
2 3 7 7 7 9 7 6 6 7 5 5 6 6 7 6 3 2 1 1 2 2 1 2 4 4 4 5 4 5 5 4 1 4 5 3 2 1 2 4 4 5 4 4 8 6 4 4 6 10 9 8 7 6 7 6 6 6 10 7 5 4 6
1 3 5 5 3 7 7 4 3 2 5 6 8 7 7 4 2 3 3 3 3 2 1 2 2 1 4 5 4 4 3 2 2 2 4 6 7 6 5 6 6 6 5 6 7 4 3 2 5 5 3 5 6 6 7 7 5 7 9 12 11 6 4
7 7 9 9 4 2 4 4 4 3 4 2 3 6 8 8 8 8 7 5 5 3 3 2 2 2 3 4 5 4 3 2 1 1 3 5 6 5 5 5 4 3 4 4 3 3 3 2 8 8 8 9 5 5 6 6 6 3 11 13 12 9 6
8 6 12 11 10 8 7 7 6 6 6 5 4 7 6 1 5 6 6 7 7 5 6 5 4 3 4 4 4 4 3 3 3 1 5 5 5 6 7 6 5 4 3 2 2 3 1 2 5 3 1 4 5 7 7 2 11 12 5 10 12 14 11
8 9 12 11 11 10 9 8 8 8 7 6 7 8 6 6 5 6 8 5 1 4 5 5 6 5 4 5 5 4 3 3 4 3 4 6 5 5 7 9 6 4 2 2 2 0 3 4 4 3 4 4 4 2 1 9 15 18 21 14 15 16 12
10 11 11 12 11 10 9 9 9 7 6 5 5 4 3 3 5 5 6 6 8 8 8 9 9 6 2 3 4 3 2 2 3 1 1 1 3 4 4 3 1 3 2 2 3 2 2 3 2 1 3 4 5 6 7 5 12 13 14 11 6 6 4
11 11 12 10 11 11 10 9 10 9 8 7 6 5 5 5 4 4 7 8 9 9 9 8 6 5 4 3 1 2 2 2 2 2 1 1 1 4 5 5 3 4 3 2 2 1 1 2 2 2 2 4 4 3 3 5 9 9 9 8 6 6 3
11 11 12 12 12 12 11 11 11 11 8 7 7 7 8 9 8 8 8 9 8 8 7 7 6 6 5 4 2 3 4 4 5 2 2 2 1 2 3 2 2 3 3 2 2 2 3 2 1 2 3 3 3 3 3 3 5 7 5 5 8 5 2
11 12 13 14 15 15 11 10 12 10 8 7 7 7 7 6 6 7 9 9 9 9 8 7 7 7 6 5 4 3 2 2 3 3 2 2 3 3 4 3 2 1 3 3 4 4 3 2 2 2 1 3 4 4 5 4 6 9 8 7 6 2 1
14 13 12 13 14 14 16 16 15 14 10 11 10 7 7 5 2 7 8 8 9 10 8 7 7 7 7 7 6 4 3 4 4 4 4 4 3 3 3 4 2 3 5 4 4 4 3 3 3 2 3 3 4 6 6 6 6 9 8 7 8 5 2
13 13 13 11 12 12 12 12 14 16 17 16 14 12 12 11 10 9 9 9 9 10 10 8 8 8 8 7 6 5 5 4 4 3 4 3 2 2 2 1 1 2 2 3 3 3 4 3 2 6 5 5 5 5 6 6 6 7 8 8 9 8 2
12 12 13 12 11 12 13 13 14 15 15 13 11 11 12 12 12 12 10 9 9 9 9 8 6 6 5 4 4 5 4 3 2 3 2 2 2 1 2 1 2 3 3 4 5 5 5 6 7 6 3 5 6 7 6 6 7 6 7 7 9 11 7
12 13 12 12 14 13 12 12 14 15 15 14 13 12 10 10 10 9 9 10 10 10 8 8 7 6 6 5 4 5 4 1 4 4 4 5 4 4 3 4 4 1 4 3 5 5 6 4 5 5 5 4 5 7 6 7 10 5 6 6 7 9 10
11 11 12 13 12 13 12 12 13 14 13 12 12 11 11 11 11 10 9 9 10 8 7 7 7 6 5 5 6 7 6 6 6 5 5 5 5 4 4 4 4 5 4 3 4 5 5 6 6 6 6 5 4 6 5 5 5 6 5 4 6 6 8
10 10 11 11 12 12 13 12 12 12 13 12 11 10 10 10 10 10 10 9 8 9 8 6 4 4 3 3 3 3 4 3 3 3 5 5 4 4 2 2 3 3 3 3 3 4 5 5 6 6 7 7 5 5 5 5 5 3 6 4 3 4 3
9 9 9 9 9 9 9 10 10 10 11 10 10 9 8 7 9 11 12 10 9 9 8 7 6 4 5 4 4 3 3 5 5 5 4 4 2 4 2 3 2 3 3 4 4 3 5 4 4 6 7 6 6 7 6 6 6 4 4 4 3 2 4
9 9 9 8 8 8 8 7 7 8 8 9 9 8 7 8 10 11 8 8 9 9 8 6 5 6 4 3 3 5 5 3 5 7 7 6 4 5 3 5 4 4 4 3 3 3 3 3 4 7 6 6 5 6 6 6 6 6 5 6 5 3 4
8 8 7 7 7 6 6 6 6 7 6 7 8 9 9 10 9 8 7 8 8 8 7 9 6 4 5 6 6 4 3 3 2 2 3 5 7 6 7 4 3 8 7 8 8 8 5 0 4 4 5 4 5 5 7 7 7 7 6 6 6 5 5
8 7 6 6 5 5 5 5 5 6 6 5 5 6 7 8 8 9 8 7 8 8 7 6 7 7 5 6 5 5 4 3 6 4 5 7 8 7 7 9 8 8 8 7 8 7 7 8 7 7 6 4 6 8 7 6 6 5 5 5 5 5 5
8 8 8 7 6 5 4 4 5 5 5 5 3 4 6 7 7 7 7 6 6 5 6 6 5 4 5 3 3 1 4 2 3 7 5 8 7 8 7 7 7 7 7 8 5 5 5 6 7 8 7 8 8 6 6 6 5 4 3 3 3 3 4
8 8 8 8 7 7 6 6 6 5 5 5 4 4 4 5 5 5 5 5 5 4 4 7 6 1 5 7 6 7 7 4 5 5 7 4 8 7 5 7 9 7 5 4 7 9 9 8 6 3 5 7 7 6 6 5 3 2 3 4 4 4 4
7 6 6 6 6 6 6 6 7 6 6 6 6 6 6 5 3 3 4 6 6 7 8 7 8 6 4 4 5 6 7 6 5 4 4 6 6 4 7 5 7 12 13 10 8 8 9 9 8 10 11 7 6 7 11 9 6 2 3 3 2 2 4
5 4 5 4 4 5 5 4 4 4 4 4 6 6 6 6 5 4 4 4 4 6 6 7 6 5 5 4 3 3 5 5 6 6 5 4 3 4 2 5 5 4 6 7 7 7 8 8 10 9 9 11 9 5 4 7 8 4 3 1 1 2 4
Wind_Direction
204 215 241 207 192 197 184 179 180 179 172 170 174 180 175 184 151 152 157 165 161 167 165 165 170 167 173 167 170 169 169 180 166 174 161 171 173 192 172 188 170 174 190 189 185 182 162 175 168 178 180 174 172 178 188 186 204 188 181 196 177 177 158
199 205 217 236 212 192 185 177 176 179 169 173 178 184 182 173 152 161 158 161 167 168 169 171 165 172 174 169 175 165 173 179 177 175 174 180 176 180 170 181 164 169 194 183 93 119 162 167 195 185 181 186 184 185 189 198 201 208 196 194 207 181 197
198 200 210 201 257 208 180 184 179 181 172 179 185 185 184 164 163 153 154 164 169 169 174 173 172 174 170 174 170 169 176 177 188 188 186 186 188 180 202 167 178 161 181 150 161 174 192 200 176 181 169 192 197 178 201 196 188 215 148 207 213 199 217
194 189 200 193 193 318 190 176 181 182 178 182 185 183 181 159 164 150 159 169 171 173 175 175 177 174 176 174 176 170 179 181 193 188 196 191 187 184 182 170 171 173 173 157 183 191 169 206 191 193 189 191 203 173 202 203 189 200 170 200 224 223 194
193 197 195 177 201 196 243 171 180 185 182 177 181 181 172 165 164 165 165 174 177 176 177 178 179 176 175 178 182 180 183 183 193 191 200 198 170 185 186 188 175 189 175 184 176 162 157 155 190 193 199 209 202 198 204 188 198 199 192 193 219 222 197
187 195 193 177 186 188 244 175 186 183 185 177 175 167 171 170 174 175 176 177 178 172 179 177 184 174 179 182 188 182 182 182 186 193 203 173 159 180 193 200 194 192 167 192 167 166 171 204 190 203 206 202 215 213 205 208 200 204 197 204 215 224 213
176 187 190 179 178 174 191 187 285 185 185 176 161 170 163 172 178 173 167 174 178 163 178 185 182 174 184 184 189 176 182 188 187 198 196 203 174 185 193 188 202 195 198 182 191 183 176 198 199 200 215 208 211 220 180 217 201 198 202 201 211 237 245
183 187 195 190 175 181 183 165 176 273 243 158 153 172 161 159 113 82 120 182 171 166 176 188 188 167 178 185 186 187 184 192 190 196 197 203 198 200 189 196 180 181 201 201 191 190 207 196 207 191 202 224 220 214 183 210 221 215 202 203 203 219 221
188 185 189 190 184 177 171 174 175 197 236 174 167 165 160 141 124 135 118 137 140 173 173 189 193 164 172 184 182 187 189 196 187 195 202 201 205 201 206 199 199 173 185 202 194 201 209 210 218 175 187 215 224 194 196 210 214 216 214 208 208 217 229
196 170 188 175 195 169 170 170 183 196 205 183 181 129 118 103 109 109 110 121 150 184 178 182 200 172 168 176 190 190 193 195 191 198 199 207 207 208 207 206 200 189 180 197 204 197 206 218 214 162 164 214 207 219 233 207 222 220 211 206 206 215 222
150 152 134 115 117 171 127 124 91 116 159 135 108 107 121 124 128 129 148 151 146 178 216 188 192 181 173 183 189 195 202 195 197 200 201 203 208 210 210 212 206 188 187 199 211 197 204 209 215 177 181 209 223 206 223 224 222 233 229 217 211 218 226
150 137 119 120 121 117 122 125 81 51 32 86 104 125 132 126 130 129 144 170 161 131 106 330 221 159 173 181 181 194 216 217 204 205 206 209 210 211 210 212 215 205 181 191 183 198 213 211 215 201 196 211 230 222 213 226 221 220 232 232 229 222 220
137 139 146 150 146 134 110 91 111 121 125 116 122 125 139 145 143 151 170 176 176 128 195 201 238 174 182 156 169 184 209 219 231 212 211 211 220 218 216 217 211 217 193 185 184 198 202 208 214 213 207 203 218 224 219 225 233 229 228 233 230 242 238
103 138 135 132 139 133 127 123 144 139 127 123 115 116 109 108 128 154 173 171 179 166 210 206 208 181 177 171 176 198 213 211 219 222 225 220 210 230 230 222 223 213 201 169 197 198 197 208 211 211 207 207 213 220 220 219 229 233 234 236 224 223 229
150 138 156 158 157 145 141 152 161 161 156 112 106 93 87 82 76 70 92 138 171 189 199 175 167 173 183 184 186 203 217 229 233 236 224 226 266 279 255 252 239 227 212 199 193 203 203 207 216 217 208 207 213 217 216 220 224 226 245 232 240 232 228
291 168 168 160 153 161 148 168 171 175 166 129 92 70 31 16 17 9 10 350 14 10 53 160 153 163 189 190 201 193 202 213 147 32 24 2 241 225 302 281 292 283 258 199 189 187 192 216 227 217 207 198 206 214 218 218 224 211 230 237 231 233 234
51 76 111 99 136 159 154 135 94 146 149 150 146 149 142 206 258 257 261 264 272 269 281 353 19 263 203 216 214 208 168 93 76 67 67 48 21 26 21 10 5 27 33 11 1 355 274 221 354 306 308 236 217 214 218 225 239 204 224 230 219 236 237
166 139 116 120 147 158 160 145 129 84 100 102 130 156 168 181 191 204 208 221 228 230 251 227 235 257 274 256 246 243 233 213 239 93 55 29 9 359 2 358 351 5 8 6 20 65 4 304 208 169 186 232 235 234 230 232 205 209 240 213 206 206 221
141 102 109 118 96 81 82 75 74 87 58 28 53 49 23 312 211 217 205 199 195 202 210 219 215 220 249 264 264 266 263 273 275 359 56 345 314 325 330 318 314 334 340 334 56 42 12 0 353 290 233 178 183 257 255 215 8 329 256 236 215 206 216
83 91 78 75 82 83 83 77 64 63 70 59 40 46 22 26 36 62 60 61 91 209 213 216 211 206 217 230 240 248 268 276 285 294 139 175 240 248 251 260 256 269 259 111 69 306 280 291 313 349 17 13 358 340 45 54 13 359 329 289 239 216 211
74 80 78 74 74 75 82 87 87 97 86 66 64 75 75 4 36 49 68 58 58 60 63 54 44 37 43 44 20 296 272 276 259 291 345 160 192 214 227 244 286 266 307 178 163 201 217 250 305 6 20 16 28 38 67 71 48 9 353 341 297 265 211
71 75 88 94 91 88 86 92 96 94 109 125 136 120 121 119 111 74 70 66 58 58 66 70 69 90 90 86 75 86 70 67 59 104 135 111 240 236 242 254 258 257 274 283 205 192 69 68 62 15 39 62 66 86 76 73 59 57 26 358 2 352 299
81 84 82 80 89 106 107 94 86 82 73 66 79 87 69 57 57 71 72 69 66 65 56 65 66 55 89 100 85 73 68 98 116 131 196 109 147 232 227 221 248 251 245 260 274 246 245 225 143 75 73 81 107 119 98 54 47 79 59 24 26 13 334
83 71 58 56 48 44 61 103 113 103 88 88 92 86 90 101 113 102 85 81 74 64 54 40 45 44 34 48 74 70 64 94 140 171 178 184 206 208 215 224 193 253 304 241 220 214 211 170 149 139 96 124 132 130 124 101 36 18 27 39 33 16 285
73 73 68 62 55 54 47 41 43 57 78 87 67 79 110 121 71 90 91 89 79 75 68 47 39 35 45 36 29 38 54 90 92 73 75 88 107 152 169 178 192 188 218 227 242 223 205 213 196 195 149 152 146 150 122 99 60 35 12 26 33 18 321
66 69 69 64 73 76 63 54 57 53 42 33 34 39 40 44 45 55 65 66 72 72 67 57 42 33 32 42 39 29 31 31 57 100 117 110 118 100 105 84 126 130 153 123 122 92 59 28 294 225 182 170 157 117 103 92 74 53 19 9 34 31 1
78 70 70 72 69 63 62 60 60 57 49 40 42 54 44 37 40 37 37 56 61 65 67 62 61 60 30 18 71 73 67 36 59 82 71 128 130 157 85 113 116 111 126 126 128 113 93 85 65 35 43 111 115 117 110 112 101 78 59 23 25 33 36
70 62 63 77 75 64 66 64 60 58 54 48 41 42 53 54 49 47 37 39 50 54 58 60 46 49 47 12 23 55 60 160 184 96 64 41 39 44 36 34 51 78 110 127 134 137 124 94 98 96 75 46 97 98 92 93 96 99 69 50 37 44 43
68 63 56 50 59 72 74 68 60 61 61 53 46 42 43 50 52 50 44 35 29 45 51 60 55 41 37 23 18 41 18 354 19 69 71 56 22 32 60 52 68 63 62 61 110 138 140 131 136 124 118 109 79 79 91 85 86 83 84 57 45 38 44
82 75 62 57 56 51 55 57 55 60 60 59 57 44 39 41 45 45 43 41 38 29 31 37 69 96 56 42 51 56 25 8 44 55 92 92 81 38 3 84 65 58 123 138 117 132 143 154 151 138 126 112 114 101 98 100 82 80 92 82 46 29 33
101 96 87 80 73 65 58 53 51 51 49 45 56 63 70 60 48 42 38 25 27 26 11 21 19 38 65 40 12 44 37 7 8 20 41 81 125 145 139 49 84 66 30 59 42 76 103 105 130 134 133 134 130 130 131 126 136 135 140 142 125 48 3
118 112 111 103 89 78 68 64 58 53 52 42 46 53 51 61 61 48 35 31 12 16 357 354 16 10 27 86 55 8 68 71 23 2 12 20 41 23 28 74 44 12 38 47 87 63 49 109 123 119 122 122 122 121 136 139 113 84 60 37 35 33 307
131 130 120 111 107 105 97 91 86 74 60 53 26 25 38 43 53 61 37 28 31 13 1 356 355 24 1 20 26 35 31 71 105 164 85 33 358 18 6 3 72 52 35 27 12 2 360 356 119 122 110 110 123 116 93 71 50 43 32 18 8 11 354
144 139 134 130 134 117 113 103 98 101 93 68 43 41 39 40 41 41 42 37 22 9 357 356 354 360 21 31 24 2 15 15 2 72 102 39 31 20 18 16 39 50 47 26 18 7 8 355 21 32 35 63 75 82 78 74 61 37 13 9 2 349 348
160 154 144 151 147 148 124 117 102 100 100 87 63 43 46 40 29 15 28 40 55 12 342 331 336 337 345 2 87 117 307 25 19 16 23 113 89 76 33 4 23 42 62 53 36 39 17 14 28 27 31 45 30 46 76 65 51 38 17 341 334 330 348
166 162 168 162 169 159 152 137 130 125 119 119 115 93 74 57 44 24 18 12 15 38 21 340 312 337 42 12 13 17 353 39 30 32 358 65 118 102 90 58 47 33 36 69 63 48 33 49 72 33 13 56 55 41 61 63 65 57 342 321 304 285 270
170 171 179 173 169 153 147 145 141 143 138 134 135 131 129 118 99 69 45 15 18 20 18 3 347 337 66 62 31 4 349 18 26 19 47 15 26 100 123 113 53 41 44 53 49 46 43 54 53 44 40 44 90 75 88 103 109 142 233 249 262 306 324
179 149 102 89 145 136 136 138 136 139 134 141 143 135 134 130 128 128 105 86 44 32 33 19 359 350 5 24 80 55 15 32 16 2 29 24 11 29 338 134 113 73 43 56 54 49 49 44 44 38 42 49 47 68 118 132 136 145 138 88 16 320 300